www.pogodaiklimat.ru

Погода и климат >> Архив погоды >> Россия >> Чукотка >> Константиновская


ПОГОДА в Константиновской

  • Прогноз погоды в Константиновской
  • Монитор погоды в Константиновской

АРХИВ ПОГОДЫ в Константиновской

Время (UTC), дата Ветер
(напр.,м/с)
 
Видим.   Явления Облачность Т
(С)
Тd
(С)
f
(%)
Тe
(С)
Тes
(С)
Комфортность P
(гПа)
Po
(гПа)
Тmin
(С)
Tmax
(С)
R
(мм)
R24
(мм)
S
(см)
03 19.04 З 5
{12}
2000 м слаб. ливневой снег 10/10 600 м
[Cb cap]
-6.8 -11.5 69 -14 -14 1017.6 1016.5
06 19.04 З 5
{12}
50 км {ливн. осадки} 8/8 600 м
[Sc diur, vesp]
-7.4 -12.8 65 -15 -14 1020.2 1019.1
09 19.04 З 3
{11}
10 км слаб. снег 10/10 600 м
[Sc]
-7.8 -12.3 70 -13 -13 1022.4 1021.3 +0.8 0.2
12 19.04 З 1
{8}
50 км {снег} 4/3 600 м
[Sc Ci fib]
-13.9 -17.4 75 -16 -16 1024.1 1023.0
15 19.04 ЮЗ 2
{3}
50 км 4/0
[Ci fib]
-18.5 -20.4 85 -24 -24 1025.1 1023.9
18 19.04 ЮЗ 1
{3}
50 км ясно -19.6 -21.5 85 -23 -22 1025.1 1023.9
21 19.04 Ю 1
{3}
50 км ясно -9.1 -17.9 49 -11 -8 1024.9 1023.8 -20.6 0.0 49
00 20.04 Ю 2
{4}
50 км 4/0
[Ci fib]
-5.6 -17.1 40 -9 -3 1023.6 1022.5
03 20.04 СВ 1
{3}
50 км 10/0
[Cs]
-4.3 -16.5 38 -6 0 1022.6 1021.5
06 20.04 С 2
{5}
50 км 10/0
[Cs]
-5.6 -15.1 47 -9 -7 1022.6 1021.5
09 20.04 СЗ 2
{5}
50 км 3/0
[Ci fib]
-11.6 -16.9 65 -16 -16 1023.6 1022.5 -3.6
12 20.04 СЗ 1
{3}
50 км 1/0
[Ci fib]
-20.0 -21.9 85 -23 -23 1025.0 1023.8
18 20.04 З 1
{2}
50 км 1/0
[Ci fib]
-26.2 -28.7 79 -30 -30 1026.4 1025.2
06 21.04 С 2
{4}
50 км 9/0
[Ci fib]
-3.7 -15.9 38 -7 -5 1026.2 1025.1
21 21.04 ЮВ 2
{3}
50 км 4/0
[Ci fib]
-10.6 -17.9 55 -15 -12 1023.6 1022.5 -25.3 49
00 22.04 ЮВ 3
{5}
50 км 3/0
[Ci fib]
-4.4 -15.3 42 -9 -4 1022.4 1021.3
03 22.04 ЮВ 3 20 км 3/0
[Ci fib]
-1.8 -13.3 41 -6 -1 1020.9 1019.8
06 22.04 ЮВ 3
{7}
50 км 3/0
[Ci fib]
-0.5 -12.5 40 -4 -2 1019.6 1018.5
09 22.04 В 3
{7}
50 км 3/0
[Ci fib]
-3.5 -13.1 47 -8 -8 1019.1 1018.0 -0.5
12 22.04 В 4
{6}
50 км 3/0
[Ci fib]
-7.5 -14.6 57 -14 -14 1019.1 1018.0
15 22.04 В 4
{6}
50 км ясно -10.3 -15.6 65 -17 -17 1018.7 1017.6
21 22.04 ЮВ 4
{7}
50 км 3/0
[Ci fib]
-6.1 -16.0 45 -12 -10 1017.9 1016.8 -11.5 48
00 23.04 ЮВ 5-10
{11}
50 км 3/0
[Ci fib]
-1.9 -14.1 39 -8 -4 1017.4 1016.3
03 23.04 ЮВ 5
{10}
50 км 3/0
[Ci fib]
+0.9 -11.6 39 -4 -1 1016.4 1015.3
06 23.04 ЮВ 4
{9}
50 км 3/0
[Ci fib]
+2.3 -9.2 42 -2 -0 1015.7 1014.6
09 23.04 ЮВ 3
{8}
50 км 3/0
[Ci fib]
0.0 -8.5 53 -4 -4 1016.0 1014.9 +2.3
12 23.04 ЮВ 2
{5}
50 км 3/0
[Ci fib]
-4.2 -11.6 56 -8 -8 1016.4 1015.3
15 23.04 ЮВ 2
{5}
50 км 1/0
[Ci fib]
-6.6 -12.7 62 -11 -11 1016.2 1015.1
18 23.04 В 2
{4}
50 км 3/0
[Ci fib]
-9.0 -13.4 70 -13 -13 1016.1 1015.0
21 23.04 ЮВ 3
{7}
50 км 4/0
[Ci fib]
-3.5 -10.5 58 -8 -6 1015.5 1014.4 -9.0 48
00 24.04 ЮВ 4
{8}
50 км 4/0
[Ci fib]
+0.3 -7.3 57 -5 -0 1014.7 1013.6
03 24.04 ЮВ 4
{9}
50 км 6/0
[Ci fib]
+2.5 -6.1 53 -2 +2 1014.0 1013.0
06 24.04 ЮВ 4
{9}
50 км 8/0
[Ac trans Ci fib]
+3.1 -5.6 53 -1 0 1013.4 1012.4
09 24.04 ЮВ 2
{7}
50 км 9/8 600 м
[Sc Ac trans Ci fib]
+1.0 -6.2 59 -2 -2 1012.7 1011.6 +3.1
12 24.04 ЮВ 2
{4}
50 км 10/10 600 м
[Sc]
-0.4 -6.1 65 -4 -4 1012.7 1011.6
15 24.04 Ю 1
{3}
50 км 10/10 600 м
[Sc]
-0.9 -2.8 87 -3 -3 1012.4 1011.3
18 24.04 ЮВ 2
{3}
10 км слаб. снег 10/10 600 м
[Sc]
-1.0 -2.0 93 -5 -5 1012.5 1011.4
21 24.04 ЮВ 2
{3}
50 км в посл. час снег 9/3 600 м
[Sc Ac trans Ci sp]
+1.4 -1.5 81 -2 -1 1012.3 1011.2 -1.5 0.3 47
00 25.04 ЮВ 3
{6}
50 км {снег} 6/4 600 м
[Cu hum Ci fib]
+4.7 -2.3 60 +2 +5 1012.1 1011.1
03 25.04 Ю 2
{6}
50 км 9/5 600 м
[Sc diur, vesp Ci fib]
+5.9 -3.1 52 +4 +7 1011.8 1010.8
06 25.04 ЮВ 2
{5}
50 км 8/3 600 м
[Cu med, cong Ac cuf Ci fib]
+6.6 -3.6 48 +5 +6 1011.7 1010.7
09 25.04 Ю 2
{4}
50 км 8/3 600 м
[Sc diur, vesp Ac cuf Ci fib]
+3.7 -2.9 62 +1 +1 1012.1 1011.1 +6.8
12 25.04 ЮВ 1
{4}
50 км 8/0
[Ac trans]
+0.4 -4.3 71 -1 -1 1012.4 1011.3
15 25.04 Ю 2
{3}
50 км 8/3 600 м
[Sc Ac trans]
-1.3 -5.3 74 -5 -5 1012.4 1011.3
18 25.04 ЮВ 1
{3}
50 км 6/4 600 м
[Sc Ci fib]
-2.7 -6.4 76 -5 -5 1012.4 1011.3
21 25.04 ЮВ 3
{8}
50 км 4/0
[Ac trans Ci fib]
+1.0 -5.8 60 -3 -1 1012.1 1011.0 -2.8 45
00 26.04 ЮВ 4
{8}
50 км 4/0
[Ci fib]
+3.1 -6.1 51 -1 +4 1011.2 1010.2

 

Местоположение метеостанции Константиновская (Чукотка, Россия): широта 68.15 долгота 161.10 высота над уровнем моря 8 м.

В архиве по умолчанию представлена погода в Константиновской за последнюю неделю. Архивные данные за месяц целиком и за предыдущие месяцы, начиная с января 2011 года, Вы можете получить, выбрав интересующий диапазон дат из раскрывающегося списка и нажав кнопку "Ввод!".


*Определитесь, кто Вы:
робот инопланетянин человек

Внимание! Время в таблицах - всемирное. Для получения местного времени необходимо прибавить поправку, которая равна 12 ч.

Смотрите также архив погоды в соседних городах и на ближайших метеорологических станциях:

Погода в Анюйске (Чукотка, Россия) (28 км)
Погода в Черском (Якутия, Россия) (65 км)
Погода в Колымской (Якутия, Россия) (120 км)
Погода в Островном (Чукотка, Россия) (124 км)
Погода в Бухте Амбарчик (Чукотка, Россия) (170 км)
Погода в Билибино (Чукотка, Россия) (220 км)
Погода в Баимке (Чукотка, Россия) (224 км)
Погода в Раучуе (Чукотка, Россия) (264 км)
Погода в Андрюшкино (Якутия, Россия) (290 км)
Погода в Илирнее (Чукотка, Россия) (304 км)

Пояснения к столбцам:

Ветер - указаны скорость ветра в м/с - средняя за 10 мин, порывы в срок и между сроками (в фигурных скобках) и направление, откуда дует ветер: С - северный, СВ - северо-восточный, В - восточный, ЮВ - юго-восточный, Ю - южный, ЮЗ - юго-западный, З - западный, СЗ - северо-западный.
Видимость - горизонтальная дальность видимости в метрах или километрах. При видимости от 1 до 10 км при отсутствии осадков обычно наблюдается дымка, при ухудшении видимости до 1 км и менее - туман. В сухую погоду видимость может ухудшаться дымом, пылью или мглою.
Явления - указаны атмосферные явления, наблюдавшиеся в срок или в последний час перед сроком; фигурными скобками обозначены явления, наблюдавшиеся между сроками (за 1-3 часа до срока); квадратными скобками обозначены град или гололедные отложения с указанием их диаметра в мм.
Облачность - указаны через наклонную черту общая и нижняя облачность в баллах и высота нижней границы облаков в метрах; квадратными скобками обозначены формы облаков: Ci - перистые, Cs - перисто-слоистые, Cc - перисто-кучевые, Ac - высококучевые, As - высокослоистые, Sc - слоисто-кучевые, Ns - слоисто-дождевые, Cu - кучевые, Cb - кучево-дождевые. Подробнее классификацию облаков см. в Атласе облаков (PDF).
T - Температура воздуха - температура, измеренная на высоте 2 м над землей.
Td - Температура точки росы - температура, при понижении до которой содержащийся в воздухе водяной пар достигнет насыщения.
f - Относительная влажность воздуха - влажноcть воздуха, измеренная на высоте 2 м над землей.
Te - Эффективная температура - температура, которую ощущает одетый по сезону человек в тени. Характеристика душности погоды. При расчете учитывается влияние влажности воздуха и скорости ветра на теплоощущения человека.
Tes - Эффективная температура на солнце - температура, которую ощущает человек, с поправкой на солнечный нагрев. Характеристика знойности погоды. Зависит от высоты солнца над горизонтом, облачности и скорости ветра. Ночью, в пасмурную погоду, а также при ветре 12 м/с и более поправка равна нулю.
P - Атмосферное давление - приведенное к уровню моря атмосферное давление.
Po - Атмосферное давление - измеренное на уровне метеостанции атмосферное давление.
Tmin - Минимальная температура - минимум температуры воздуха на высоте 2 м над землей.
Tmax - Максимальная температура - максимум температуры воздуха на высоте 2 м над землей.
R - Количество осадков - Количество выпавших осадков за период времени, мм. При наведении курсора мыши на число - период времени, за который выпало указанное количество осадков.
R24 - Количество осадков - Количество выпавших осадков за 24 часа, мм.
S - Снежный покров - Высота снежного покрова, см. При наведении курсора мыши на число - состояние снежного покрова и степень покрытия местности в баллах.